Flag for Switzerland Weather past 2 weeks in Uster, Zurich, Switzerland

Now
69 °F

Mild.


Feels Like: 69 °F
Forecast: 54 / 62 °F
Wind: 6 mph from West

Location: Zurich Town / Ville.

Current Time: Jul 28, 2015 at 8:21:50 PM

Latest Report: Jul 28, 2015 at 7:00 PM


Visibility: N/A

Pressure: 29.80 "Hg

Humidity: 48%

Dew point: 48 °F

Location of UsterLocation

Historic Weather in Uster — Graph

°F

Uster temperature yesterday

Maximum temperature yesterday: 75 °F (at 4:00 PM)
Minimum temperature yesterday: 56 °F (at 1:00 AM)
Average temperature yesterday: 66 °F

Past Weeks' High & Low Weather Summary

 TemperatureHumidityPressure
High92 °F (Jul 21, 5:00 PM)98% (Jul 27, 2:00 AM)30.17 "Hg (Jul 27, 2:00 AM)
Low55 °F (Jul 26, 6:00 AM)24% (Jul 16, 4:00 PM)29.66 "Hg (Jul 24, 5:00 PM)
Average72 °F62%29.95 "Hg
* Reported Jul 13 7:00 PM — Jul 28 7:00 PM, Uster, Weather by CustomWeather, © 2015

Note: Actual official high and low records may vary slightly from our data, if they occured in-between our weather recording intervals... More about our weather records

Advertising

Uster weather history for previous 24 hours

 ConditionsComfort  
Time TempWeatherWind HumidityBarometerVisibility
7:00 PM
Tue, Jul 28
69 °FMild.6 mph48%29.80 "HgN/A
6:00 PM69 °FMild.7 mph48%29.80 "HgN/A
5:00 PM69 °FMild.7 mph47%29.81 "HgN/A
4:00 PM68 °FMild.6 mph49%29.83 "HgN/A
3:00 PM66 °FMild.7 mph51%29.84 "HgN/A
2:00 PM65 °FOvercast.7 mph54%29.86 "HgN/A
1:00 PM64 °FMild.9 mph55%29.87 "HgN/A
12:00 PM64 °FMild.6 mph59%29.88 "HgN/A
11:00 AM63 °FMild.8 mph58%29.89 "HgN/A
10:00 AM63 °FMild.6 mph64%29.88 "HgN/A
8:00 AM62 °FCool.7 mph62%29.88 "HgN/A
7:00 AM61 °FCool.7 mph65%29.87 "HgN/A
6:00 AM61 °FCool.6 mph64%29.86 "HgN/A
4:00 AM64 °FMild.8 mph58%29.84 "HgN/A
3:00 AM66 °FMild.8 mph54%29.83 "HgN/A
2:00 AM66 °FMild.10 mph54%29.84 "HgN/A
1:00 AM65 °FMild.9 mph56%29.84 "HgN/A
12:00 AM66 °FMild.7 mph54%29.85 "HgN/A
10:00 PM
Mon, Jul 27
66 °FMild.6 mph56%29.84 "HgN/A
9:00 PM68 °FMild.12 mph51%29.83 "HgN/A
8:00 PM70 °FScattered clouds.8 mph47%29.80 "HgN/A
Weather by CustomWeather, © 2015

See weather overviewHow to use our weather pages